QPF
0.01 0.00 0.00 0.00 0.00 0.00 0.00 0.00 0.00 0.00 0.00 0.00 0.00 0.00 0.00 0.00 0.00 0.00 0.00 0.00 0.00 0.00 0.00 0.00 0.00 0.00 0.00 0.00 0.00 0.00 0.00 0.00 0.00 0.00 0.00 0.00 0.00 0.00 0.00 0.00 0.00 0.00 0.00 0.00
0.01 0.01 0.00 0.00 0.00 0.00 0.00 0.00 0.00 0.00 0.00 0.00 0.00 0.00 0.00 0.00 0.00 0.00 0.00 0.00 0.00 0.00 0.00 0.00 0.00 0.00 0.00 0.00 0.00 0.00 0.00 0.00 0.00 0.00 0.00 0.00 0.00 0.00 0.00 0.00 0.00 0.00 0.00 0.00
0.00 0.00 0.00 0.00 0.00 0.00 0.00 0.00 0.00 0.00 0.00 0.00 0.00 0.00 0.00 0.00 0.00 0.00 0.00 0.00 0.00 0.00 0.00 0.00 0.00 0.00 0.00 0.00 0.00 0.00 0.00 0.00 0.00 0.00 0.00 0.00 0.00 0.00 0.00 0.00 0.00 0.00 0.00 0.00
0.01 0.00 0.00 0.00 0.00 0.00 0.00 0.00 0.00 0.00 0.00 0.00 0.00 0.00 0.00 0.00 0.00 0.00 0.00 0.00 0.00 0.00 0.00 0.00 0.00 0.00 0.00 0.00 0.00 0.00 0.00 0.00 0.00 0.00 0.00 0.00 0.00 0.00 0.00 0.00 0.00 0.00 0.00 0.00
0.01 0.00 0.00 0.00 0.00 0.00 0.00 0.00 0.00 0.00 0.00 0.00 0.00 0.00 0.00 0.00 0.00 0.00 0.00 0.00 0.00 0.00 0.00 0.00 0.00 0.00 0.00 0.00 0.00 0.00 0.00 0.00 0.00 0.00 0.00 0.00 0.00 0.00 0.00 0.00 0.00 0.00 0.00 0.00
0.00 0.00 0.00 0.00 0.00 0.00 0.00 0.00 0.01 0.00 0.00 0.00 0.00 0.00 0.00 0.00 0.00 0.00 0.00 0.00 0.00 0.00 0.00 0.00 0.00 0.00 0.00 0.00 0.00 0.00 0.00 0.00 0.00 0.00 0.00 0.00 0.00 0.00 0.00 0.00 0.00 0.00 0.00 0.00
0.00 0.00 0.00 0.00 0.00 0.01 0.02 0.02 0.02 0.01 0.00 0.00 0.00 0.00 0.00 0.00 0.00 0.00 0.00 0.00 0.00 0.00 0.00 0.00 0.00 0.00 0.00 0.00 0.00 0.00 0.00 0.00 0.00 0.00 0.00 0.00 0.00 0.00 0.00 0.00 0.00 0.00 0.00 0.00
0.00 0.00 0.00 0.00 0.00 0.00 0.00 0.01 0.00 0.00 0.00 0.00 0.00 0.00 0.00 0.00 0.00 0.00 0.00 0.00 0.00 0.00 0.00 0.00 0.00 0.00 0.00 0.00 0.00 0.00 0.00 0.00 0.00 0.00 0.00 0.00 0.00 0.00 0.00 0.00 0.00 0.00 0.00 0.00
0.00 0.00 0.00 0.00 0.00 0.00 0.00 0.02 0.00 0.00 0.00 0.00 0.00 0.00 0.00 0.00 0.00 0.00 0.00 0.00 0.00 0.00 0.00 0.00 0.00 0.00 0.00 0.00 0.00 0.00 0.00 0.00 0.00 0.00 0.00 0.00 0.00 0.00 0.00 0.00 0.00 0.00 0.00 0.00
0.00 0.00 0.00 0.00 0.02 0.01 0.00 0.00 0.00 0.00 0.00 0.00 0.00 0.00 0.00 0.00 0.00 0.00 0.00 0.00 0.00 0.00 0.00 0.00 0.00 0.00 0.00 0.00 0.00 0.00 0.00 0.00 0.00 0.00 0.00 0.00 0.00 0.00 0.00 0.00 0.00 0.00 0.00 0.00
0.01 0.00 0.00 0.01 0.01 0.00 0.00 0.01 0.00 0.00 0.00 0.00 0.00 0.00 0.00 0.00 0.00 0.00 0.00 0.00 0.00 0.00 0.00 0.00 0.00 0.00 0.00 0.00 0.00 0.00 0.00 0.00 0.00 0.00 0.00 0.00 0.00 0.00 0.00 0.00 0.00 0.00 0.00 0.00
0.01 0.00 0.00 0.00 0.00 0.00 0.00 0.00 0.00 0.00 0.00 0.00 0.00 0.00 0.00 0.00 0.00 0.00 0.00 0.00 0.00 0.00 0.00 0.00 0.00 0.00 0.00 0.00 0.00 0.00 0.00 0.00 0.00 0.00 0.00 0.00 0.00 0.00 0.00 0.00 0.00 0.00 0.00 0.00
0.01 0.00 0.00 0.00 0.00 0.00 0.00 0.00 0.00 0.00 0.00 0.00 0.00 0.00 0.00 0.00 0.00 0.00 0.00 0.00 0.00 0.00 0.00 0.00 0.00 0.00 0.00 0.00 0.00 0.00 0.00 0.00 0.00 0.00 0.00 0.00 0.00 0.00 0.00 0.00 0.00 0.00 0.00 0.00
0.00 0.00 0.00 0.00 0.00 0.00 0.00 0.00 0.00 0.00 0.00 0.00 0.00 0.00 0.00 0.00 0.00 0.00 0.00 0.00 0.00 0.00 0.00 0.00 0.00 0.00 0.00 0.00 0.00 0.00 0.00 0.00 0.00 0.00 0.00 0.00 0.00 0.00 0.00 0.00 0.00 0.00 0.00 0.00
0.01 0.00 0.00 0.00 0.00 0.00 0.00 0.00 0.00 0.00 0.00 0.00 0.00 0.00 0.00 0.00 0.00 0.00 0.00 0.00 0.00 0.00 0.00 0.00 0.00 0.00 0.00 0.00 0.00 0.00 0.00 0.00 0.00 0.00 0.00 0.00 0.00 0.00 0.00 0.00 0.00 0.00 0.00 0.00
0.02 0.00 0.00 0.00 0.00 0.00 0.00 0.00 0.00 0.00 0.00 0.00 0.00 0.00 0.00 0.00 0.00 0.00 0.00 0.00 0.00 0.00 0.00 0.00 0.00 0.00 0.00 0.00 0.00 0.00 0.00 0.00 0.00 0.00 0.00 0.00 0.00 0.00 0.00 0.00 0.00 0.00 0.00 0.00
0.01 0.00 0.00 0.00 0.00 0.00 0.00 0.00 0.00 0.00 0.00 0.00 0.00 0.00 0.00 0.00 0.00 0.00 0.00 0.00 0.00 0.00 0.00 0.00 0.00 0.00 0.00 0.00 0.00 0.00 0.00 0.00 0.00 0.00 0.00 0.00 0.00 0.00 0.00 0.00 0.00 0.00 0.00 0.00
0.00 0.00 0.00 0.00 0.00 0.00 0.00 0.00 0.00 0.00 0.00 0.00 0.00 0.00 0.00 0.00 0.00 0.00 0.00 0.00 0.00 0.00 0.00 0.00 0.00 0.00 0.00 0.00 0.00 0.00 0.00 0.00 0.00 0.00 0.00 0.00 0.00 0.00 0.00 0.00 0.00 0.00 0.00 0.00
0.00 0.00 0.00 0.00 0.00 0.00 0.00 0.00 0.00 0.00 0.00 0.00 0.00 0.00 0.00 0.00 0.00 0.00 0.00 0.00 0.00 0.00 0.00 0.00 0.00 0.00 0.00 0.00 0.00 0.00 0.00 0.00 0.00 0.00 0.00 0.00 0.00 0.00 0.00 0.00 0.00 0.00 0.00 0.00
0.00 0.00 0.00 0.00 0.00 0.00 0.00 0.00 0.00 0.00 0.00 0.00 0.00 0.00 0.00 0.00 0.00 0.00 0.00 0.00 0.00 0.00 0.00 0.00 0.00 0.00 0.00 0.00 0.00 0.00 0.00 0.00 0.00 0.00 0.00 0.00 0.00 0.00 0.00 0.00 0.00 0.00 0.00 0.00
0.00 0.00 0.00 0.00 0.00 0.00 0.00 0.00 0.00 0.00 0.00 0.00 0.00 0.00 0.00 0.00 0.00 0.00 0.00 0.00 0.00 0.00 0.00 0.00 0.00 0.00 0.00 0.00 0.00 0.00 0.00 0.00 0.00 0.00 0.00 0.00 0.00 0.00 0.00 0.00 0.00 0.00 0.00 0.00
0.00 0.00 0.00 0.00 0.00 0.00 0.00 0.00 0.00 0.00 0.00 0.00 0.00 0.00 0.00 0.00 0.00 0.00 0.00 0.00 0.00 0.00 0.00 0.00 0.00 0.00 0.00 0.00 0.00 0.00 0.00 0.00 0.00 0.00 0.00 0.00 0.00 0.00 0.00 0.00 0.00 0.00 0.00 0.00
0.00 0.00 0.00 0.00 0.00 0.00 0.00 0.00 0.00 0.00 0.00 0.00 0.00 0.00 0.00 0.00 0.00 0.00 0.00 0.00 0.00 0.00 0.00 0.00 0.00 0.00 0.00 0.00 0.00 0.00 0.00 0.00 0.00 0.00 0.00 0.00 0.00 0.00 0.00 0.00 0.00 0.00 0.00 0.00
0.00 0.00 0.00 0.00 0.00 0.00 0.00 0.00 0.00 0.00 0.00 0.00 0.00 0.00 0.00 0.00 0.00 0.00 0.00 0.00 0.00 0.00 0.00 0.00 0.00 0.00 0.00 0.00 0.00 0.00 0.00 0.00 0.00 0.00 0.00 0.00 0.00 0.00 0.00 0.00 0.00 0.00 0.00 0.00
0.00 0.00 0.00 0.00 0.00 0.00 0.00 0.00 0.00 0.00 0.00 0.00 0.00 0.00 0.00 0.00 0.00 0.00 0.00 0.00 0.00 0.00 0.00 0.00 0.00 0.00 0.00 0.00 0.00 0.00 0.00 0.00 0.00 0.00 0.00 0.00 0.00 0.00 0.00 0.00 0.00 0.00 0.00 0.00
0.00 0.00 0.00 0.00 0.00 0.00 0.00 0.00 0.00 0.00 0.00 0.00 0.00 0.00 0.00 0.00 0.00 0.00 0.00 0.00 0.00 0.00 0.00 0.00 0.00 0.00 0.00 0.00 0.00 0.00 0.00 0.00 0.00 0.00 0.00 0.00 0.00 0.00 0.00 0.00 0.00 0.00 0.00 0.00
MSLP
1018.82 1019.12 1018.85 1019.14 1019.35 1019.61 1019.42 1019.38 1019.08 1018.23 1017.63 1017.68 1017.71 1017.22 1016.87 1016.45 1016.93 1017.11 1017.05 1016.83 1016.93 1017.07 1016.83 1016.97 1017.13 1017.54 1018.27 1018.85 1019.02 1019.56 1020.32 1020.71 1020.93 1021.46 1021.96 1022.20 1022.17 1022.40 1022.63 1022.68 1022.85 1023.29 1023.60 1023.86
1019.16 1018.14 1018.77 1019.52 1019.59 1019.61 1019.62 1019.60 1018.95 1018.18 1017.68 1017.72 1017.78 1017.20 1016.72 1016.50 1016.32 1016.33 1016.31 1016.30 1016.18 1015.93 1016.24 1016.43 1016.54 1016.83 1017.25 1017.85 1018.42 1018.90 1019.35 1019.82 1020.30 1020.50 1020.95 1021.61 1021.99 1022.14 1022.04 1022.43 1022.69 1022.82 1023.05 1023.36
1017.72 1017.44 1018.77 1019.23 1019.38 1019.57 1019.43 1019.27 1018.97 1018.64 1018.22 1018.17 1018.05 1017.40 1016.71 1016.11 1015.64 1015.41 1015.16 1014.98 1014.96 1015.11 1015.22 1015.46 1015.84 1015.99 1016.30 1016.83 1017.47 1017.82 1018.33 1018.94 1019.57 1020.29 1020.53 1021.01 1021.43 1021.89 1022.23 1022.29 1022.38 1022.31 1022.56 1022.89
1017.53 1017.68 1017.97 1018.59 1018.61 1018.90 1018.89 1018.82 1018.97 1018.79 1018.99 1018.84 1018.25 1017.14 1015.96 1015.59 1015.11 1014.60 1014.34 1014.19 1013.82 1013.96 1014.10 1014.42 1014.56 1014.92 1015.24 1015.56 1016.09 1016.63 1017.34 1018.10 1018.64 1019.43 1019.94 1020.07 1020.21 1020.54 1020.56 1021.11 1021.59 1021.79 1021.98 1022.28
1016.65 1016.42 1017.20 1017.61 1016.92 1018.28 1018.46 1018.53 1019.09 1019.21 1019.47 1019.27 1018.93 1018.44 1015.82 1015.29 1014.68 1013.94 1013.27 1012.73 1012.66 1012.73 1012.94 1013.14 1013.42 1013.45 1013.83 1014.83 1015.22 1015.74 1016.43 1017.39 1017.95 1018.32 1018.89 1019.39 1019.72 1019.79 1020.20 1020.70 1021.00 1021.36 1021.57 1021.63
1016.30 1016.37 1016.32 1016.11 1017.11 1017.75 1018.19 1019.04 1019.67 1020.14 1020.16 1019.52 1018.40 1018.37 1015.52 1014.78 1013.94 1013.10 1012.27 1011.93 1011.81 1011.95 1011.95 1012.06 1012.23 1012.65 1013.10 1013.72 1014.51 1015.10 1015.54 1015.94 1016.84 1017.48 1017.76 1018.18 1018.62 1019.10 1019.46 1019.74 1020.16 1020.39 1020.48 1020.77
1016.25 1016.16 1016.23 1016.09 1016.73 1017.35 1017.67 1018.58 1019.74 1020.44 1020.07 1018.31 1017.69 1018.04 1014.92 1013.64 1012.85 1012.21 1011.86 1011.70 1011.57 1011.64 1011.45 1011.46 1011.64 1012.11 1012.47 1013.05 1013.60 1014.26 1014.86 1015.17 1015.82 1016.55 1016.90 1017.15 1017.58 1018.26 1018.51 1018.71 1018.98 1019.45 1019.87 1019.93
1015.64 1015.87 1015.64 1015.86 1014.89 1014.97 1015.74 1016.49 1017.64 1018.37 1018.71 1018.12 1017.88 1015.79 1013.38 1012.22 1011.19 1011.11 1011.28 1011.30 1011.23 1011.25 1011.06 1011.04 1011.06 1011.13 1011.59 1012.14 1012.67 1013.33 1014.03 1014.43 1014.95 1015.60 1015.76 1016.41 1016.85 1017.26 1017.53 1017.86 1018.16 1018.43 1018.53 1018.59
1015.18 1014.83 1014.34 1015.02 1014.41 1014.45 1015.50 1015.77 1015.78 1017.45 1018.81 1018.43 1016.92 1014.81 1013.27 1011.86 1011.39 1010.98 1011.05 1011.08 1010.99 1011.03 1010.95 1010.90 1010.87 1010.92 1011.14 1011.58 1012.02 1012.59 1013.17 1013.65 1014.28 1014.67 1015.23 1015.62 1016.05 1016.38 1016.35 1016.56 1017.13 1017.34 1017.52 1017.74
1014.72 1015.12 1014.72 1014.60 1014.75 1014.67 1014.02 1014.28 1015.95 1016.78 1018.14 1018.10 1016.21 1014.66 1012.43 1011.70 1010.91 1010.91 1011.01 1010.97 1010.91 1011.03 1011.07 1010.86 1010.89 1011.01 1011.12 1011.35 1011.52 1011.90 1012.22 1012.53 1012.81 1013.21 1013.76 1014.11 1014.52 1015.06 1015.42 1015.93 1016.11 1016.28 1016.54 1016.92
1014.04 1014.90 1015.44 1015.30 1013.77 1013.45 1014.23 1014.19 1014.61 1015.44 1016.62 1016.45 1015.84 1013.23 1011.15 1010.52 1010.51 1010.69 1010.99 1011.00 1011.03 1011.28 1011.43 1011.34 1011.27 1011.32 1011.58 1011.60 1011.73 1011.76 1012.01 1012.23 1012.53 1012.79 1013.06 1013.44 1013.75 1014.24 1014.69 1015.08 1015.39 1015.63 1016.05 1016.32
1013.87 1013.81 1014.55 1014.57 1014.43 1013.45 1012.74 1012.80 1013.02 1014.08 1015.36 1015.54 1015.05 1012.51 1010.57 1010.02 1010.28 1010.37 1010.79 1011.09 1011.13 1011.25 1011.43 1011.70 1011.67 1011.56 1011.66 1011.83 1012.00 1012.18 1012.29 1012.58 1012.51 1012.59 1012.72 1012.95 1013.09 1013.42 1013.76 1014.06 1014.25 1014.60 1014.87 1015.10
1013.14 1014.07 1013.65 1014.80 1014.48 1013.66 1013.01 1012.48 1012.41 1012.70 1013.53 1014.15 1014.38 1012.32 1010.97 1010.70 1010.73 1010.79 1010.76 1011.04 1011.14 1011.35 1011.35 1011.58 1011.80 1012.04 1012.14 1012.25 1012.44 1012.44 1012.39 1012.46 1012.55 1012.58 1012.64 1012.68 1012.63 1012.54 1012.47 1012.51 1012.81 1013.36 1013.71 1014.17
1012.49 1012.43 1012.29 1012.41 1011.71 1011.63 1011.24 1010.73 1010.87 1011.25 1012.02 1012.30 1011.89 1011.72 1011.08 1011.06 1010.94 1010.88 1011.02 1010.84 1011.05 1011.22 1011.18 1011.38 1011.63 1011.95 1012.11 1012.22 1012.34 1012.32 1012.36 1012.40 1012.53 1012.57 1012.60 1012.71 1012.80 1012.80 1012.70 1012.76 1012.96 1013.19 1013.45 1013.83
1011.44 1011.11 1012.36 1012.06 1012.28 1011.24 1010.90 1011.02 1010.95 1011.01 1010.04 1010.70 1009.92 1010.59 1010.25 1010.00 1010.12 1010.16 1010.32 1010.77 1010.99 1010.99 1011.08 1011.18 1011.41 1011.79 1011.91 1012.04 1012.18 1012.18 1012.21 1012.28 1012.36 1012.49 1012.57 1012.64 1012.79 1012.83 1012.79 1012.82 1012.99 1013.32 1013.67 1014.02
1010.91 1010.76 1011.25 1011.76 1011.89 1010.77 1010.34 1010.63 1010.69 1010.52 1010.30 1010.19 1009.51 1009.49 1009.16 1009.06 1009.60 1009.95 1010.07 1010.46 1010.73 1010.80 1010.83 1010.95 1011.19 1011.30 1011.57 1011.72 1011.91 1012.06 1012.19 1012.20 1012.45 1012.57 1012.76 1012.94 1013.07 1013.24 1013.42 1013.62 1013.83 1013.78 1014.16 1014.34
1010.74 1011.00 1010.73 1011.26 1011.63 1010.92 1010.19 1008.87 1008.71 1008.60 1008.75 1008.05 1008.32 1007.26 1008.61 1008.79 1009.19 1009.30 1009.72 1009.67 1010.05 1010.45 1010.72 1010.91 1011.14 1011.37 1011.83 1011.95 1011.88 1011.98 1012.06 1012.27 1012.53 1012.81 1013.08 1013.21 1013.37 1013.54 1013.88 1014.07 1014.00 1014.29 1014.76 1015.15
1011.44 1009.75 1011.01 1010.91 1011.16 1009.75 1007.27 1007.18 1007.16 1007.33 1006.87 1006.67 1006.83 1007.03 1007.47 1007.96 1008.15 1008.44 1008.64 1009.12 1009.89 1010.45 1010.98 1011.47 1011.86 1012.07 1012.21 1012.18 1012.05 1012.05 1012.26 1012.53 1012.82 1013.10 1013.31 1013.44 1013.73 1014.01 1014.31 1014.46 1014.69 1015.00 1015.25 1015.52
1009.01 1008.56 1009.33 1010.00 1009.47 1009.15 1007.58 1006.47 1006.38 1006.80 1005.59 1005.84 1006.32 1007.07 1007.58 1007.93 1008.41 1008.72 1008.95 1009.68 1010.78 1011.49 1011.93 1012.19 1012.39 1012.52 1012.72 1012.83 1012.89 1012.87 1012.97 1013.03 1013.19 1013.39 1013.60 1013.80 1014.14 1014.51 1014.79 1014.95 1015.11 1015.29 1015.49 1015.72
1006.92 1007.66 1008.00 1009.25 1009.07 1008.02 1005.52 1005.38 1005.84 1007.55 1006.23 1004.18 1004.60 1005.94 1007.27 1008.20 1008.82 1008.79 1009.92 1010.79 1011.55 1012.28 1012.66 1012.98 1013.16 1013.49 1013.65 1013.75 1013.68 1013.83 1014.05 1013.97 1014.04 1013.97 1013.84 1013.95 1014.23 1014.68 1014.84 1015.08 1015.39 1015.58 1015.65 1015.84
1006.43 1007.56 1007.61 1008.16 1008.24 1007.11 1005.39 1005.06 1005.97 1007.62 1003.84 1003.32 1003.73 1004.81 1006.67 1007.68 1007.01 1009.24 1010.53 1011.59 1012.24 1012.80 1013.20 1013.54 1013.99 1014.51 1014.77 1014.60 1014.44 1014.73 1014.80 1014.87 1014.87 1014.80 1014.62 1014.69 1014.69 1014.86 1014.81 1015.03 1015.44 1015.74 1016.05 1016.19
1005.93 1007.02 1007.52 1008.02 1008.17 1006.56 1004.69 1005.29 1004.48 1003.76 1003.92 1004.03 1004.36 1004.85 1006.12 1007.55 1008.60 1009.97 1011.26 1012.33 1013.05 1013.60 1014.13 1014.40 1014.95 1015.44 1015.59 1015.47 1015.36 1015.64 1015.72 1015.57 1015.39 1015.28 1015.32 1015.44 1015.22 1015.08 1015.19 1015.25 1015.46 1015.75 1016.01 1016.34
1006.03 1005.41 1006.67 1007.24 1006.34 1005.29 1005.33 1004.55 1004.58 1004.59 1005.14 1005.35 1005.31 1005.40 1006.23 1008.12 1009.59 1011.06 1012.12 1013.09 1014.10 1014.79 1015.40 1015.80 1016.18 1016.64 1016.87 1016.90 1016.70 1016.59 1016.68 1016.29 1016.19 1016.23 1016.23 1016.43 1016.35 1016.02 1015.86 1015.86 1016.18 1016.35 1016.27 1016.41
1006.92 1006.56 1007.10 1007.74 1007.44 1006.84 1006.51 1006.13 1005.55 1005.85 1006.27 1006.71 1006.55 1006.81 1007.46 1008.93 1010.53 1011.76 1013.01 1014.39 1015.33 1016.14 1016.72 1017.12 1017.48 1017.82 1018.01 1017.99 1017.85 1017.61 1017.28 1016.84 1016.75 1016.90 1017.02 1017.21 1017.32 1017.11 1016.73 1016.38 1016.41 1016.54 1016.59 1016.64
1010.49 1009.66 1010.00 1010.22 1009.47 1008.60 1008.20 1008.11 1007.31 1007.26 1007.78 1008.15 1008.19 1008.77 1009.65 1010.55 1012.25 1013.07 1014.24 1015.40 1016.43 1017.10 1017.54 1017.91 1018.38 1018.87 1019.17 1019.11 1018.82 1018.52 1017.99 1017.30 1017.21 1017.16 1017.35 1017.32 1017.22 1017.29 1017.33 1017.23 1016.82 1016.70 1016.85 1016.89
1014.90 1015.21 1014.39 1013.84 1013.77 1013.17 1011.35 1010.54 1009.31 1009.09 1009.64 1010.05 1009.99 1010.89 1011.37 1011.78 1012.95 1014.11 1015.51 1016.73 1017.49 1018.26 1018.88 1019.48 1019.80 1019.93 1020.15 1020.24 1020.11 1019.54 1018.76 1018.09 1017.83 1017.93 1017.88 1017.84 1017.87 1018.00 1017.74 1017.63 1017.36 1016.91 1016.91 1016.73
Thickness
5565 5567 5579 5593 5597 5604 5614 5610 5613 5631 5644 5639 5640 5648 5659 5670 5669 5667 5674 5682 5687 5692 5699 5702 5705 5705 5702 5698 5699 5695 5691 5688 5690 5687 5682 5681 5681 5682 5681 5682 5681 5678 5675 5673
5550 5566 5585 5584 5587 5593 5596 5599 5609 5625 5639 5633 5635 5647 5663 5662 5668 5673 5677 5679 5685 5695 5696 5701 5705 5705 5705 5700 5698 5697 5693 5692 5689 5691 5687 5683 5680 5680 5680 5678 5676 5674 5673 5672
5560 5584 5574 5573 5578 5582 5591 5594 5607 5614 5623 5627 5626 5630 5648 5661 5669 5675 5683 5690 5693 5695 5697 5701 5702 5705 5705 5705 5701 5699 5696 5694 5691 5686 5685 5683 5680 5677 5675 5674 5674 5675 5673 5670
5556 5565 5563 5563 5573 5582 5582 5599 5602 5605 5606 5597 5620 5613 5648 5659 5666 5676 5685 5688 5696 5698 5698 5701 5705 5705 5708 5710 5706 5704 5699 5695 5693 5688 5685 5685 5685 5683 5683 5679 5675 5673 5672 5670
5553 5561 5558 5559 5586 5581 5582 5596 5594 5597 5592 5597 5604 5599 5633 5655 5656 5671 5686 5696 5700 5700 5702 5705 5708 5713 5711 5705 5706 5704 5701 5694 5693 5692 5689 5685 5684 5684 5679 5676 5673 5671 5668 5669
5552 5560 5564 5575 5576 5576 5574 5573 5572 5569 5577 5578 5606 5601 5617 5646 5660 5678 5690 5696 5699 5703 5706 5709 5711 5713 5711 5707 5703 5702 5702 5700 5694 5691 5691 5688 5685 5682 5679 5677 5673 5672 5671 5668
5546 5548 5556 5569 5564 5562 5567 5569 5555 5557 5561 5584 5604 5588 5627 5655 5672 5680 5685 5689 5693 5696 5703 5710 5709 5707 5710 5706 5704 5702 5699 5699 5694 5689 5689 5690 5687 5680 5679 5679 5676 5673 5670 5670
5539 5536 5551 5556 5570 5572 5578 5580 5558 5559 5567 5590 5583 5598 5626 5661 5687 5691 5685 5686 5691 5696 5701 5704 5709 5710 5711 5706 5704 5700 5697 5697 5694 5689 5691 5686 5684 5683 5680 5678 5676 5673 5672 5672
5528 5538 5561 5558 5575 5580 5560 5560 5592 5560 5502 5552 5577 5611 5634 5653 5671 5676 5678 5683 5687 5690 5695 5700 5702 5704 5706 5706 5702 5700 5698 5696 5693 5691 5687 5685 5682 5680 5682 5681 5675 5674 5672 5670
5531 5535 5545 5557 5558 5562 5570 5595 5561 5553 5536 5545 5576 5597 5620 5640 5664 5672 5676 5673 5680 5685 5687 5692 5695 5697 5699 5699 5702 5701 5701 5700 5698 5696 5692 5690 5687 5683 5680 5676 5675 5673 5671 5666
5539 5533 5525 5533 5547 5555 5554 5557 5564 5576 5556 5563 5563 5593 5635 5649 5654 5666 5667 5670 5673 5674 5673 5677 5682 5684 5686 5689 5690 5693 5694 5695 5692 5690 5688 5686 5684 5679 5675 5671 5668 5667 5662 5661
5530 5534 5527 5536 5531 5553 5568 5571 5580 5565 5555 5561 5562 5590 5632 5644 5644 5658 5660 5662 5664 5667 5666 5667 5670 5674 5676 5679 5680 5680 5680 5680 5683 5683 5682 5680 5678 5675 5671 5669 5667 5663 5660 5658
5524 5507 5535 5523 5523 5533 5552 5565 5578 5574 5567 5560 5559 5583 5625 5628 5632 5641 5651 5654 5655 5657 5662 5661 5661 5663 5664 5665 5666 5668 5670 5670 5671 5672 5673 5673 5672 5672 5672 5671 5667 5661 5657 5653
5520 5514 5527 5544 5560 5559 5565 5573 5581 5583 5564 5575 5581 5595 5611 5613 5620 5628 5638 5644 5645 5647 5653 5653 5654 5655 5657 5658 5659 5659 5660 5660 5660 5660 5660 5659 5658 5659 5658 5656 5653 5650 5647 5642
5518 5508 5519 5536 5539 5551 5559 5563 5563 5565 5592 5573 5604 5591 5608 5617 5618 5622 5626 5632 5637 5641 5644 5647 5649 5649 5650 5650 5650 5650 5650 5650 5651 5650 5649 5648 5647 5647 5647 5645 5642 5637 5632 5628
5515 5512 5530 5528 5529 5546 5551 5556 5557 5562 5575 5574 5592 5590 5610 5618 5616 5613 5621 5622 5626 5632 5641 5644 5647 5647 5646 5645 5644 5642 5639 5639 5637 5636 5635 5634 5632 5630 5628 5625 5622 5621 5616 5612
5514 5508 5520 5528 5521 5536 5532 5555 5565 5575 5579 5592 5580 5615 5604 5605 5605 5608 5614 5622 5624 5626 5631 5636 5638 5637 5632 5631 5632 5632 5631 5628 5626 5624 5620 5618 5616 5615 5611 5607 5606 5602 5597 5591
5472 5517 5498 5506 5517 5532 5557 5571 5579 5576 5586 5594 5596 5602 5607 5606 5610 5610 5617 5620 5620 5620 5618 5615 5612 5614 5616 5615 5618 5620 5618 5616 5613 5610 5607 5605 5602 5598 5593 5591 5587 5582 5578 5574
5507 5514 5504 5513 5534 5531 5552 5567 5573 5566 5586 5597 5593 5594 5591 5594 5596 5602 5606 5607 5600 5595 5592 5593 5596 5598 5597 5597 5598 5599 5597 5596 5595 5594 5591 5588 5585 5577 5576 5571 5569 5566 5562 5557
5521 5524 5527 5502 5525 5538 5575 5572 5575 5559 5557 5605 5604 5594 5587 5582 5580 5601 5588 5583 5578 5576 5575 5576 5577 5576 5576 5575 5577 5578 5576 5577 5577 5577 5576 5573 5568 5562 5560 5557 5551 5546 5543 5540
5499 5493 5515 5517 5495 5519 5557 5562 5568 5539 5592 5592 5602 5598 5584 5581 5607 5579 5566 5563 5562 5560 5560 5561 5558 5555 5554 5556 5558 5557 5557 5556 5555 5555 5554 5551 5549 5548 5546 5542 5535 5530 5525 5521
5509 5505 5505 5487 5472 5538 5551 5558 5567 5584 5577 5583 5584 5584 5582 5566 5564 5560 5552 5547 5546 5544 5542 5542 5539 5535 5534 5535 5539 5538 5537 5537 5537 5536 5535 5532 5534 5533 5530 5527 5523 5518 5514 5509
5515 5526 5512 5525 5526 5544 5538 5562 5558 5559 5558 5565 5566 5565 5570 5557 5548 5542 5537 5532 5527 5524 5521 5519 5518 5515 5513 5513 5517 5519 5517 5519 5519 5518 5515 5515 5511 5513 5512 5511 5506 5501 5499 5495
5497 5493 5509 5512 5506 5520 5529 5534 5543 5546 5544 5540 5547 5550 5553 5542 5534 5528 5523 5514 5509 5506 5503 5500 5499 5496 5495 5495 5496 5498 5500 5503 5503 5498 5497 5494 5492 5492 5493 5494 5491 5488 5484 5480
5445 5466 5473 5472 5477 5497 5509 5509 5521 5523 5523 5523 5525 5527 5525 5525 5513 5513 5506 5500 5496 5492 5488 5485 5482 5479 5476 5476 5478 5479 5483 5487 5488 5487 5486 5484 5482 5479 5477 5476 5477 5475 5470 5467
5387 5393 5435 5457 5429 5438 5475 5475 5499 5507 5503 5501 5506 5502 5503 5507 5501 5496 5487 5481 5478 5473 5468 5463 5461 5461 5459 5457 5458 5461 5466 5471 5472 5471 5470 5469 5467 5463 5462 5459 5458 5462 5459 5457